User: anonymous   Login
Location: Milton
(43.5183°N, 79.8775°W)
Time: 06:45:08
(UTC+00:00)
Language:

COSMOS 2251 DEB - Orbit

View from above orbital plane
View from above orbital plane
View from above satellite
View from above satellite

Ground track
Ground track

The orbit data is extracted from the following two-line orbital elements,

1 35671U 93036APN 23338.58394954  .00001082  00000-0  30704-3 0  9997
2 35671  74.0197  22.8915 0041629  13.6306 138.6115 14.46172254761825
Epoch (UTC): 04 December 2023 14:00:53
Eccentricity: 0.0041629
inclination: 74.0197°
perigee height: 708 km
apogee height: 768 km
right ascension of ascending node: 22.8915°
argument of perigee: 13.6306°
revolutions per day: 14.46172254
mean anomaly at epoch: 138.6115°
orbit number at epoch: 76182

The dashed part of the orbit path shows where the satellite is in the earth's shadow,  

DLR